Regional Weather Roundup
Issued by NWS

Home | Current Version | Previous Version | Graphics & Text | Print | Product List | Glossary On
Versions: 1 2 3 4 5 6 7 8 9 10 11 12 13 14 15 16 17 18 19 20 21 22 23 24 25 26 27 28 29 30 31 32 33 34 35 36 37 38 39 40 41 42 43 44 45 46 47 48 49 50
000
ASUS45 KABQ 252201
RWRNM
NEW MEXICO REGIONAL WEATHER ROUNDUP
NATIONAL WEATHER SERVICE ALBUQUERQUE NM
400 PM MDT TUE APR 25 2017

NOTE: "FAIR" MEANS FEW OR NO CLOUDS BELOW 12,000 FEET AGL WITH NO
       SIGNIFICANT WEATHER OR OBSTRUCTIONS TO VISION.

      THIS PRODUCT IS RELEASED AS TWO VERSIONS.  ONE VERSION NEAR
      THE TOP OF THE HOUR CONTAINING PRELIMINARY DATA FROM ALBUQUERQUE
      AND OTHER STATIONS.  A FINAL VERSION WITH ADDITIONAL DATA IS
      ISSUED ABOUT 10 MINUTES AFTER THE HOUR.

NMZ501-503-504-510>518-252300-
NORTHWEST PLATEAU/NORTHCENTRAL MOUNTAINS

CITY           SKY/WX    TMP DP  RH WIND       PRES   REMARKS
FARMINGTON     FAIR      52  34  50 NW16      29.64F
LOS ALAMOS     CLOUDY    53  28  38 W12G23    29.66F
SANTA FE       FAIR      59  37  44 W21G29    29.64F
TAOS             N/A     48  30  49 SW16G22   29.65S
ANGEL FIRE     FAIR      44  34  68 SW20G35   29.64F

$$
NMZ402-403-502-505>509-252300-
WESTCENTRAL MOUNTAINS/SOUTHWEST MOUNTAINS

CITY           SKY/WX    TMP DP  RH WIND       PRES   REMARKS
GALLUP         FAIR      60  25  26 W32G44    29.66F
GRANTS         PTSUNNY   50  39  65 NW7       29.69F
SILVER CITY    FAIR      71  33  24 W33G40    29.71F

$$
NMZ407-409-411-412-252300-
SOUTHERN DESERTS

CITY           SKY/WX    TMP DP  RH WIND       PRES   REMARKS
DEMING         PTSUNNY   79  32  18 W36G51    29.64F HAZE
LAS CRUCES     CLOUDY    79  30  16 W29G44    29.64S HAZE
HOLLOMAN AFB   FAIR      80  30  16 W33       29.60F
ALAMOGORDO     FAIR      79  30  17 SW23G38   29.60F
T OR C         FAIR      76  29  17 W25G39    29.60F

$$
NMZ519>523-252300-
CENTRAL VALLEYS/CENTRAL HIGHLANDS

CITY           SKY/WX    TMP DP  RH WIND       PRES   REMARKS
ALBUQUERQUE    FAIR      57  44  62 NE6       29.64F
DOUBLE EAGLE   PTSUNNY   57  37  47 MISG      29.65F
MORIARTY ARPT  FAIR      56  43  62 NW9G17    29.68F
CLINES CORNERS PTSUNNY   48  43  82 W22G30    29.69S
BELEN          FAIR      65  35  32 NW16G29   29.62F
SOCORRO        PTSUNNY   74  30  19 W18       29.59F

$$
NMZ524>526-539-540-252300-
SOUTHCENTRAL MOUNTAINS

CITY           SKY/WX    TMP DP  RH WIND       PRES   REMARKS
RUIDOSO        NOT AVBL

$$
NMZ527>531-252300-
NORTHEAST HIGHLANDS/NORTHEAST PLAINS

CITY           SKY/WX    TMP DP  RH WIND       PRES   REMARKS
LAS VEGAS      FAIR      57  30  35 SW23G31   29.60R
RATON          PTSUNNY   52  39  61 NW16G26   29.54R
CLAYTON        FAIR      60  37  42 SE12      29.50F

$$
NMZ532>537-252300-
EASTCENTRAL PLAINS

CITY           SKY/WX    TMP DP  RH WIND       PRES   REMARKS
SANTA ROSA     MOCLDY    67  34  29 W25G43    29.54F
TUCUMCARI      FAIR      73  37  27 W30G38    29.46S
CANNON AFB     FAIR      73  35  25 W32G46    29.52S
CLOVIS AIRPORT FAIR      73  36  25 W33G45    29.52S

$$
NMZ028-029-538-252300-
SOUTHEAST PLAINS

CITY           SKY/WX    TMP DP  RH WIND       PRES   REMARKS
ROSWELL        FAIR      83  28  13 W20G32    29.52F
ARTESIA        FAIR      82  30  15 W25G33    29.51F
CARLSBAD       PTSUNNY   87  26  11 W40G49    29.48F
HOBBS          SUNNY     82  25  12 SW26G41   29.53F


$$




USA.gov is the U.S. government's official web portal to all federal, state and local government web resources and services.